Weather History for Oconto, WI

Change the Weather History Date:

Tuesday, April 2, 2013

  Actual Average Record
Temperature  
Mean Temperature 28 °F -  
Max Temperature 37 °F 45 °F 40 °F (2014)
Min Temperature 20 °F 27 °F 20 °F (2013)
Degree Days  
Heating Degree Days 36    
Moisture  
Dew Point 10 °F    
Average Humidity 48    
Maximum Humidity 68    
Minimum Humidity 31    
Precipitation  
Precipitation 0.00 in - - ()
Sea Level Pressure  
Sea Level Pressure 30.18 in    
Wind  
Wind Speed 6 mph (WNW)    
Max Wind Speed 15 mph    
Max Gust Speed 21 mph    
Visibility 10 miles    
Events      
Averages and records for this station are not official NWS values.
T = Trace of Precipitation, MM = Missing Value Source: NWS Daily Summary

Daily Weather History Graph

Daily Weather History Graph

Search for Another Location

Airport:

Trip Planner

Search our weather history database for the weather conditions in past years. The results will help you decide how hot, cold, wet, or windy it might be!

Date:

Astronomy

Apr. 02, 2013 Rise Set
Actual Time 6:30 AM CDT 7:20 PM CDT
Civil Twilight 6:00 AM CDT 7:50 PM CDT
Nautical Twilight 5:25 AM CDT 8:26 PM CDT
Astronomical Twilight 4:48 AM CDT 9:03 PM CDT
Moon 1:35 AM CDT (4/2) 11:10 AM CDT (4/2)
Length of Visible Light 13h 50m
Length of Day
12h 50m
Waning Gibbous, 55% of the Moon is Illuminated
Apr 2
Waning Gibbous
Apr 2
Last Quarter
Apr 10
New
Apr 18
First Quarter
Apr 25
Full

Hourly Weather History & Observations

Time (CDT) Temp. Windchill Dew Point Humidity Pressure Visibility Wind Dir Wind Speed Gust Speed Precip Events Conditions
12:15 AM 21.2 °F - 10.8 °F 64% 30.11 in 10.0 mi Calm Calm - N/A   Clear
12:35 AM 20.3 °F 15.4 °F 11.3 °F 68% 30.11 in 10.0 mi West 3.5 mph - N/A   Clear
12:55 AM 21.2 °F 14.9 °F 10.4 °F 63% 30.11 in 10.0 mi West 4.6 mph - N/A   Clear
1:15 AM 21.6 °F 15.3 °F 10.0 °F 61% 30.11 in 10.0 mi West 4.6 mph - N/A   Clear
1:35 AM 21.6 °F 16.8 °F 9.7 °F 60% 30.11 in 10.0 mi West 3.5 mph - N/A   Clear
1:55 AM 21.0 °F 16.2 °F 9.9 °F 62% 30.11 in 10.0 mi WSW 3.5 mph - N/A   Clear
2:15 AM 20.3 °F 15.4 °F 10.8 °F 67% 30.11 in 10.0 mi West 3.5 mph - N/A   Clear
2:35 AM 20.8 °F 14.4 °F 10.4 °F 64% 30.11 in 10.0 mi West 4.6 mph - N/A   Clear
2:55 AM 20.3 °F 12.5 °F 10.2 °F 65% 30.11 in 10.0 mi West 5.8 mph - N/A   Clear
3:15 AM 20.5 °F 12.8 °F 9.9 °F 64% 30.11 in 10.0 mi West 5.8 mph - N/A   Clear
3:35 AM 21.2 °F 12.6 °F 9.9 °F 62% 30.11 in 10.0 mi West 6.9 mph - N/A   Clear
3:55 AM 21.2 °F 12.6 °F 10.0 °F 62% 30.12 in 10.0 mi West 6.9 mph - N/A   Clear
4:15 AM 21.2 °F 13.6 °F 9.9 °F 62% 30.12 in 10.0 mi WNW 5.8 mph - N/A   Clear
4:35 AM 21.6 °F 14.0 °F 9.3 °F 59% 30.12 in 10.0 mi WNW 5.8 mph - N/A   Clear
4:55 AM 21.0 °F 13.4 °F 9.7 °F 62% 30.13 in 10.0 mi West 5.8 mph - N/A   Clear
5:15 AM 20.5 °F 11.7 °F 9.7 °F 63% 30.14 in 10.0 mi West 6.9 mph - N/A   Clear
5:35 AM 20.7 °F 13.0 °F 9.5 °F 62% 30.14 in 10.0 mi WNW 5.8 mph - N/A   Clear
5:55 AM 21.0 °F 12.4 °F 9.5 °F 61% 30.14 in 10.0 mi West 6.9 mph - N/A   Clear
6:15 AM 21.2 °F 12.6 °F 9.5 °F 61% 30.15 in 10.0 mi WNW 6.9 mph - N/A   Clear
6:35 AM 21.2 °F 12.6 °F 9.3 °F 60% 30.15 in 10.0 mi WNW 6.9 mph - N/A   Clear
6:55 AM 21.2 °F 13.6 °F 9.7 °F 61% 30.16 in 10.0 mi WNW 5.8 mph - N/A   Clear
7:15 AM 21.9 °F 13.4 °F 10.2 °F 61% 30.16 in 10.0 mi WNW 6.9 mph - N/A   Clear
7:35 AM 22.8 °F 14.5 °F 10.4 °F 59% 30.17 in 10.0 mi WNW 6.9 mph - N/A   Clear
7:55 AM 23.7 °F 15.6 °F 10.9 °F 58% 30.18 in 10.0 mi WNW 6.9 mph - N/A   Clear
8:15 AM 24.8 °F 16.9 °F 11.5 °F 57% 30.18 in 10.0 mi WNW 6.9 mph - N/A   Clear
8:35 AM 25.7 °F 17.1 °F 12.2 °F 57% 30.18 in 10.0 mi WNW 8.1 mph - N/A   Clear
8:55 AM 26.6 °F 19.1 °F 12.6 °F 55% 30.19 in 10.0 mi NW 6.9 mph - N/A   Clear
9:35 AM 28.4 °F 20.4 °F 13.1 °F 53% 30.19 in 10.0 mi WNW 8.1 mph - N/A   Clear
9:55 AM 29.3 °F 22.3 °F 13.1 °F 51% 30.19 in 10.0 mi WNW 6.9 mph - N/A   Clear
10:15 AM 30.6 °F 22.4 °F 12.9 °F 48% 30.19 in 10.0 mi NNW 9.2 mph - N/A   Clear
10:35 AM 30.7 °F 24.1 °F 12.4 °F 47% 30.19 in 10.0 mi NW 6.9 mph - N/A   Clear
10:55 AM 31.5 °F 23.5 °F 13.6 °F 48% 30.19 in 10.0 mi West 9.2 mph - N/A   Scattered Clouds
11:15 AM 32.0 °F 22.5 °F 13.8 °F 47% 30.19 in 10.0 mi West 12.7 mph 17.3 mph N/A   Mostly Cloudy
11:35 AM 32.7 °F 24.5 °F 13.6 °F 45% 30.19 in 10.0 mi West 10.4 mph 19.6 mph N/A   Mostly Cloudy
11:55 AM 32.7 °F 22.5 °F 11.7 °F 42% 30.18 in 10.0 mi West 15.0 mph 19.6 mph N/A   Mostly Cloudy
12:15 PM 33.8 °F 28.6 °F 10.6 °F 38% 30.18 in 10.0 mi WNW 5.8 mph - N/A   Mostly Cloudy
12:35 PM 33.8 °F 27.0 °F 10.2 °F 38% 30.18 in 10.0 mi WNW 8.1 mph 19.6 mph N/A   Mostly Cloudy
12:55 PM 34.3 °F 24.6 °F 9.9 °F 36% 30.17 in 10.0 mi West 15.0 mph 19.6 mph N/A   Mostly Cloudy
1:15 PM 33.6 °F 25.0 °F 8.1 °F 34% 30.17 in 10.0 mi NW 11.5 mph 18.4 mph N/A   Scattered Clouds
1:35 PM 35.2 °F 28.1 °F 10.0 °F 35% 30.17 in 10.0 mi NW 9.2 mph - N/A   Scattered Clouds
1:55 PM 35.2 °F 27.6 °F 9.5 °F 34% 30.17 in 10.0 mi North 10.4 mph 18.4 mph N/A   Scattered Clouds
2:15 PM 35.2 °F 28.1 °F 11.1 °F 37% 30.17 in 10.0 mi West 9.2 mph - N/A   Scattered Clouds
2:35 PM 35.6 °F 30.7 °F 9.1 °F 33% 30.17 in 10.0 mi NW 5.8 mph - N/A   Scattered Clouds
2:55 PM 37.4 °F 29.3 °F 11.1 °F 34% 30.17 in 10.0 mi West 12.7 mph - N/A   Mostly Cloudy
3:15 PM 37.2 °F 30.6 °F 9.0 °F 31% 30.16 in 10.0 mi NW 9.2 mph - N/A   Scattered Clouds
3:35 PM 37.4 °F 30.8 °F 10.8 °F 33% 30.16 in 10.0 mi NW 9.2 mph - N/A   Mostly Cloudy
3:55 PM 37.2 °F 29.1 °F 9.7 °F 32% 30.16 in 10.0 mi NW 12.7 mph 20.7 mph N/A   Mostly Cloudy
4:15 PM 36.1 °F 29.9 °F 9.1 °F 33% 30.17 in 10.0 mi NW 8.1 mph - N/A   Scattered Clouds
4:35 PM 37.2 °F 31.2 °F 9.3 °F 32% 30.17 in 10.0 mi NW 8.1 mph - N/A   Scattered Clouds
4:55 PM 36.0 °F 29.6 °F 9.9 °F 34% 30.17 in 10.0 mi NW 8.1 mph - N/A   Scattered Clouds
5:15 PM 36.7 °F 32.0 °F 9.5 °F 32% 30.18 in 10.0 mi NW 5.8 mph - N/A   Scattered Clouds
5:35 PM 37.4 °F 32.8 °F 10.2 °F 33% 30.18 in 10.0 mi NNW 5.8 mph - N/A   Clear
5:55 PM 37.0 °F 31.6 °F 9.1 °F 32% 30.19 in 10.0 mi NW 6.9 mph - N/A   Clear
6:15 PM 36.5 °F 29.7 °F 8.8 °F 32% 30.19 in 10.0 mi NNW 9.2 mph - N/A   Scattered Clouds
6:35 PM 36.1 °F 29.9 °F 9.7 °F 33% 30.20 in 10.0 mi NW 8.1 mph - N/A   Scattered Clouds
6:55 PM 35.4 °F 30.5 °F 9.5 °F 34% 30.21 in 10.0 mi NW 5.8 mph - N/A   Clear
7:15 PM 34.3 °F 30.2 °F 10.2 °F 37% 30.21 in 10.0 mi NW 4.6 mph - N/A   Clear
7:35 PM 33.8 °F 28.6 °F 9.3 °F 36% 30.21 in 10.0 mi NNW 5.8 mph - N/A   Clear
7:55 PM 32.7 °F 29.6 °F 9.5 °F 38% 30.22 in 10.0 mi NW 3.5 mph - N/A   Clear
8:15 PM 32.0 °F 27.5 °F 9.5 °F 39% 30.23 in 10.0 mi NW 4.6 mph - N/A   Clear
8:35 PM 32.0 °F 27.5 °F 9.0 °F 38% 30.24 in 10.0 mi NW 4.6 mph - N/A   Clear
8:55 PM 31.6 °F 27.0 °F 9.1 °F 39% 30.25 in 10.0 mi NNW 4.6 mph - N/A   Clear
9:15 PM 30.9 °F 25.2 °F 9.1 °F 40% 30.26 in 10.0 mi North 5.8 mph - N/A   Clear
9:35 PM 30.4 °F 25.6 °F 8.4 °F 40% 30.27 in 10.0 mi North 4.6 mph - N/A   Clear
9:55 PM 30.2 °F 25.4 °F 7.3 °F 38% 30.27 in 10.0 mi North 4.6 mph - N/A   Clear
10:15 PM 29.7 °F 26.1 °F 7.7 °F 40% 30.28 in 10.0 mi NNW 3.5 mph - N/A   Clear
10:35 PM 29.1 °F - 7.5 °F 40% 30.28 in 10.0 mi Calm Calm - N/A   Clear
10:55 PM 27.9 °F 24.0 °F 8.1 °F 43% 30.28 in 10.0 mi North 3.5 mph - N/A   Clear
11:15 PM 26.8 °F - 8.8 °F 47% 30.29 in 10.0 mi Calm Calm - N/A   Clear
11:35 PM 23.5 °F - 11.3 °F 60% 30.29 in 10.0 mi Calm Calm - N/A   Clear
11:55 PM 21.2 °F - 11.7 °F 67% 30.29 in 10.0 mi Calm Calm - N/A   Clear